Location: Auckland
(36.8670°S, 174.7670°E)
Time: 00:28:15
(UTC+12:00)

Cosmos 1939 Rocket - Pass Details

Date: 24 January 2019
Orbit: 534 x 584 km, 97.4° (Epoch: 19 April)

Event Time Altitude Azimuth Distance (km) Brightness Sun altitude
Rises 21:32:42 0° 170° (S) 2,842 6.8 -10.3°
Maximum altitude 21:39:05 84° 256° (WSW) 601 3.0 -11.4°
Drops below altitude 10° 21:43:14 10° 345° (NNW) 1,904 5.4 -12.1°
Sets 21:45:22 0° 345° (NNW) 2,791 6.2 -12.4°
